DELTA 1 DEB, 29185

Orbit data source: Space-Track

DELTA 1 DEB, 29185 is space debris in LEO originally from a launch on Thu, 11 Jan 1968 UTC launched from the Air Force Western Test Range (AFWTR). Debris objects in space refer to the collection of defunct objects orbiting the Earth. Examples of debris include non-operational satellites, rocket bodies, and fragments generated from explosions, collisions, or faulty payload assembly.

Loading next visibility...
Identifier
29185, 1968-002J
Orbit
LEO
Last TLE update
1 day ago
Origin
Manufacturer
Unknown
Mission
Spacecraft
Bus & Motor
Unknown
Mass
Unknown
Launch date (UTC)
1968-01-11 (57 years ago)
Launch vehicle
Unknown
Launch site
Air Force Western Test Range (AFWTR)
Object type
Payload
Rocket body
Debris
Shape & HBR
Unknown
Radar Cross Section
Small (<0.1 m²)

Expand to show TLE details & history

TLE from 1 day ago
0 DELTA 1 DEB
1 29185U 68002J   25128.27264441  .00001176  00000-0  26893-2 0  9994
2 29185 105.7868 125.1115 0245006 280.4246  76.9320 13.19701686 13712
Epoch: 2025-05-08T06:32Z
Definitive object data (Epoch: 2025-05-08T06:32:36.477Z)
Latitude
-0.00006°
Longitude
160.61401°
Altitude
1,150.774 km
Speed
7.296 km/s
True Right ascension
08h 20m 26s
True Declination
0° 00' 00"
Sunlit
Object was in daylight at TLE epoch
Visualization TLE readout
Latitude
51.34484°
Longitude
2.71773°
Altitude
1,357.628 km
Speed
7.106 km/s
Apparent Right ascension
00h 25m 29s
Apparent Declination
14° 24' 08"
Sunlit
Object is in daylight
Visualization observer readout
Local Sidereal Time
14:59:53
Azimuth
41.774° NE
Elevation
-24.896°
Doppler factor
1
Orbital elements
Apogee altitude
1,368.865 km
Perigee altitude
998.331 km
Semi-major axis
7,561.735 km
Eccentricity
0.0245006
Inclination
105.7868°
RAAN
125.1115°
Arg. of periapsis
280.4246°
True anomaly
79.68486°
Mean anomaly
76.932°
Eccentric anomaly
78.30665°
Mean motion
3.30074 °/min
BSTAR
0.0026893
Orbital period
109.07 mins
Loading maneuver chart data...
Loading SW <> Apogee altitude chart data...
Loading historical data...
Loading historical data...
Loading historical data...
Loading historical data...
Loading historical data...
Loading historical data...
Loading historical data...

DELTA 1 DEB Visibility forecast

Observer location: undefined°, undefined°

Span
Click to sort rows by Start time (UTC) header in descending order
Start Az.
Max El. time (UTC)
Max El. Az.
Max El.
End time (UTC)
End Az.
14 mins2025-05-09 12:15:59.177Z34.818° NE2025-05-09 12:22:59.177Z98.385° ESE35.275°2025-05-09 12:29:59.177Z175.52° S
12 mins2025-05-09 14:03:59.177Z5.855° NNE2025-05-09 14:09:59.177Z300.804° NW34.136°2025-05-09 14:15:59.177Z239.278° WSW
5 mins2025-05-09 21:00:59.177Z54.819° ENE2025-05-09 21:02:59.177Z38.12° NE13.635°2025-05-09 21:05:59.177Z14.563° NNE
13 mins2025-05-09 22:41:59.177Z131.56° SE2025-05-09 22:47:59.177Z54.125° ENE39.439°2025-05-09 22:54:59.177Z345.945° N
11 mins2025-05-10 00:29:59.177Z205.765° SW2025-05-10 00:34:59.177Z262.337° W27.962°2025-05-10 00:40:59.177Z317.001° NNW
|